Simultaneous Nadir Overpasses (SNOs) Predictions

Prediction of SNOs between LANDSAT-8 and METOP-A Satellite Orbit:

Table of predicted SNOs for the next 14.0 days since TLE Epoch: 8/28/2021
Index Date (LANDSAT-8) Time (LANDSAT-8) Lat,Lon (LANDSAT-8) SZA (LANDSAT-8 ) Date (METOP-A) Time (METOP-A) Lat,Lon (METOP-A) SZA (METOP-A ) Distance(km) Time Diff (sec)
1 08/29/2021 02:47:10 81.34,-178.11 74.43 08/29/2021 02:46:41 81.34,-178.28 74.41 3.00 29
2 08/29/2021 03:36:37 -81.33, -10.53 105.57 08/29/2021 03:37:21 -81.33, -10.70 105.57 2.82 44
3 08/31/2021 22:21:25 81.34,-111.55 75.48 08/31/2021 22:21:00 81.34,-111.73 75.44 3.18 25
4 08/31/2021 23:10:52 -81.34, 56.05 104.52 08/31/2021 23:11:40 -81.32, 55.88 104.53 3.29 48
5 09/03/2021 17:55:42 81.33, -45.37 76.49 09/03/2021 17:55:20 81.33, -45.20 76.50 2.86 22
6 09/03/2021 18:45:09 -81.33, 122.25 103.51 09/03/2021 18:46:01 -81.33, 122.06 103.50 3.16 52
7 09/06/2021 13:29:58 81.33, 21.18 77.57 09/06/2021 13:29:40 81.32, 21.31 77.57 2.52 18
8 09/06/2021 14:19:26 -81.32,-171.55 102.48 09/06/2021 14:20:21 -81.32,-171.39 102.43 2.84 55
9 09/09/2021 09:04:14 81.32, 87.35 78.61 09/09/2021 09:04:00 81.33, 87.42 78.62 1.56 14



Historial Predications of SNOs between LANDSAT-8 and METOP-A
